Weather History for KNYL - June, 2014

Change the Weather History Date:

Monday, June 23, 2014

  Actual Average Record
Temperature  
Mean Temperature 93 °F 91 °F  
Max Temperature 107 °F 105 °F 116 °F (1959)
Min Temperature 78 °F 77 °F 59 °F (1912)
Degree Days  
Heating Degree Days 0 0  
Month to date heating degree days 0 0  
Since 1 June heating degree days 0 0  
Since 1 July heating degree days 370 686  
Cooling Degree Days 28 26  
Month to date cooling degree days 608 533  
Year to date cooling degree days 1770 1445  
Since 1 June cooling degree days 608 533  
Growing Degree Days 43 (Base 50)    
Moisture  
Dew Point 35 °F    
Average Humidity 20    
Maximum Humidity 35    
Minimum Humidity 4    
Precipitation  
Precipitation 0.00 in 0.00 in 0.01 in (2006)
Month to date precipitation 0.00 0.01  
Year to date precipitation 0.07 1.33  
Sea Level Pressure  
Sea Level Pressure 29.74 in    
Wind  
Wind Speed 5 mph (SW)    
Max Wind Speed 16 mph    
Max Gust Speed 19 mph    
Visibility 10 miles    
Events      
T = Trace of Precipitation, MM = Missing Value Source: NWS Daily Summary

Daily Weather History Graph

Daily Weather History Graph

Search for Another Location

Airport or City:

Trip Planner

Search our weather history database for the weather conditions in past years. The results will help you decide how hot, cold, wet, or windy it might be!

Date:

Astronomy

Jun. 23, 2014 Rise Set
Actual Time 5:31 AM MST 7:49 PM MST
Civil Twilight 5:03 AM MST 8:18 PM MST
Nautical Twilight 4:28 AM MST 8:53 PM MST
Astronomical Twilight 3:49 AM MST 9:31 PM MST
Moon 2:51 AM MST (6/23) 4:42 PM MST (6/23)
Length of Visible Light 15h 15m
Length of Day
14h 18m
Waning Crescent, 12% of the Moon is Illuminated
Jun 23
Waning Crescent
Jun 27
New
Jul 5
First Quarter
Jul 12
Full
Jul 18
Last Quarter

Hourly Weather History & Observations

Time (MST) Temp. Dew Point Humidity Pressure Visibility Wind Dir Wind Speed Gust Speed Precip Events Conditions
12:57 AM 84.0 °F 46.9 °F 27% 29.72 in 10.0 mi WNW 3.5 mph - N/A   Clear
1:57 AM 84.0 °F 46.0 °F 26% 29.71 in 10.0 mi Calm Calm - N/A   Clear
2:57 AM 82.9 °F 45.0 °F 26% 29.71 in 10.0 mi WNW 3.5 mph - N/A   Clear
3:57 AM 84.0 °F 33.1 °F 16% 29.72 in 10.0 mi Calm Calm - N/A   Clear
4:57 AM 82.9 °F 46.0 °F 27% 29.73 in 10.0 mi SW 4.6 mph - N/A   Clear
5:57 AM 79.0 °F 48.9 °F 35% 29.75 in 10.0 mi West 3.5 mph - N/A   Clear
6:57 AM 82.9 °F 46.9 °F 28% 29.76 in 10.0 mi Calm Calm - N/A   Clear
7:57 AM 86.0 °F 33.1 °F 15% 29.77 in 10.0 mi ESE 5.8 mph - N/A   Clear
8:57 AM 91.9 °F 30.0 °F 11% 29.79 in 10.0 mi ENE 5.8 mph - N/A   Clear
9:57 AM 96.1 °F 32.0 °F 10% 29.79 in 10.0 mi East 5.8 mph - N/A   Clear
10:57 AM 98.1 °F 24.1 °F 7% 29.79 in 10.0 mi Calm Calm - N/A   Smoke
11:57 AM 100.0 °F 19.9 °F 6% 29.78 in 10.0 mi SW 3.5 mph - N/A   Smoke
12:57 PM 102.9 °F 19.9 °F 5% 29.76 in 10.0 mi Variable 4.6 mph - N/A   Smoke
1:57 PM 104.0 °F 17.6 °F 5% 29.75 in 10.0 mi South 5.8 mph - N/A   Smoke
2:57 PM 106.0 °F 23.0 °F 5% 29.72 in 10.0 mi NW 3.5 mph - N/A   Clear
3:57 PM 107.1 °F 28.9 °F 7% 29.70 in 10.0 mi WSW 9.2 mph - N/A   Clear
4:57 PM 107.1 °F 28.0 °F 6% 29.68 in 10.0 mi WSW 4.6 mph - N/A   Clear
5:57 PM 106.0 °F 23.0 °F 5% 29.68 in 10.0 mi WNW 5.8 mph - N/A   Clear
6:57 PM 104.0 °F 21.9 °F 5% 29.69 in 10.0 mi West 5.8 mph - N/A   Clear
7:57 PM 100.0 °F 30.9 °F 9% 29.70 in 10.0 mi SSW 10.4 mph - N/A   Clear
8:57 PM 93.9 °F 43.0 °F 17% 29.72 in 10.0 mi South 13.8 mph - N/A   Clear
9:57 PM 89.1 °F 44.1 °F 21% 29.74 in 10.0 mi South 11.5 mph - N/A   Clear
10:57 PM 87.1 °F 50.0 °F 28% 29.76 in 10.0 mi Calm Calm - N/A   Clear
11:57 PM 86.0 °F 50.0 °F 29% 29.75 in 10.0 mi SSE 5.8 mph - N/A   Clear